FW1641 Weather Reports


time (UTC)temp
C
wind
direction
speed
KPH
gust
KPH
rain 1hr
cm
rain 24hr
cm
rain mn
cm
humidity
%
barometer
mb
20260506044504 21 117 0.0 4.8 0.00 0.00 0.00 50 1013.2
20260506043002 21 117 0.0 3.2 0.00 0.00 0.00 50 1013.3
20260506041559 21 117 0.0 3.2 0.00 0.00 0.00 51 1013.3
20260506040057 21 117 0.0 3.2 0.00 0.00 0.00 51 1013.2
20260506034603 22 117 0.0 6.4 0.00 0.00 0.00 51 1012.9
20260506033118 22 117 0.0 4.8 0.00 0.00 0.00 50 1013.2
20260506031556 22 117 0.0 3.2 0.00 0.00 0.00 49 1013.2
20260506024613 22 117 0.0 4.8 0.00 0.00 0.00 45 1013.4
20260506023103 22 117 0.0 4.8 0.00 0.00 0.00 44 1013.2
20260506021559 22 117 0.0 3.2 0.00 0.00 0.00 44 1013.1
20260506020053 22 117 0.0 6.4 0.00 0.00 0.00 44 1013.1
20260506014553 22 117 0.0 1.6 0.00 0.00 0.00 44 1013.3
20260506013100 22 117 0.0 1.6 0.00 0.00 0.00 45 1013.1
20260506011620 22 117 0.0 3.2 0.00 0.00 0.00 44 1012.9
20260506010058 23 117 0.0 1.6 0.00 0.00 0.00 44 1013.0
20260506004554 23 117 0.0 4.8 0.00 0.00 0.00 43 1013.2
20260506003049 23 117 0.0 6.4 0.00 0.00 0.00 41 1013.3
20260506001548 24 119 0.0 6.4 0.00 0.00 0.00 40 1013.1
20260506000055 24 108 0.0 3.2 0.00 0.00 0.00 41 1013.0
20260505234547 25 114 0.0 3.2 0.00 0.00 0.00 40 1013.0
20260505233047 25 280 0.0 4.8 0.00 0.00 0.00 39 1013.0
20260505231546 25 283 0.0 4.8 0.00 0.00 0.00 38 1013.0
20260505230045 26 273 1.6 6.4 0.00 0.00 0.00 37 1012.8
20260505224544 26 301 0.0 4.8 0.00 0.00 0.00 39 1012.8
20260505223043 26 308 0.0 6.4 0.00 0.00 0.00 39 1013.0
20260505221549 26 128 0.0 9.7 0.00 0.00 0.00 37 1012.7
20260505220053 27 18 3.2 8.0 0.00 0.00 0.00 35 1012.7
20260505214544 27 162 0.0 9.7 0.00 0.00 0.00 34 1012.8
20260505213039 27 308 1.6 11.3 0.00 0.00 0.00 36 1012.8
20260505211539 27 300 3.2 8.0 0.00 0.00 0.00 36 1012.9
20260505210044 27 162 1.6 9.7 0.00 0.00 0.00 35 1012.8
20260505204532 27 264 0.0 9.7 0.00 0.00 0.00 37 1013.0
20260505203033 27 143 1.6 6.4 0.00 0.00 0.00 36 1013.1
20260505201529 27 114 0.0 6.4 0.00 0.00 0.00 39 1013.3
20260505200027 27 132 1.6 8.0 0.00 0.00 0.00 36 1013.8
20260505194525 27 121 1.6 12.9 0.00 0.00 0.00 37 1014.2
20260505193033 26 141 1.6 8.0 0.00 0.00 0.00 39 1014.2
20260505191524 26 124 0.0 8.0 0.00 0.00 0.00 37 1014.1
20260505190020 26 150 0.0 8.0 0.00 0.00 0.00 39 1014.4
20260505184520 26 295 1.6 6.4 0.00 0.00 0.00 38 1014.4
20260505183022 26 333 0.0 8.0 0.00 0.00 0.00 37 1014.6
20260505181517 25 300 1.6 8.0 0.00 0.00 0.00 38 1015.0
20260505180016 26 151 1.6 8.0 0.00 0.00 0.00 38 1015.2
20260505174515 26 136 1.6 9.7 0.00 0.00 0.00 38 1015.5
20260505173013 26 349 0.0 6.4 0.00 0.00 0.00 41 1015.7
20260505171512 25 146 0.0 8.0 0.00 0.00 0.00 41 1015.7
20260505170010 25 25 1.6 8.0 0.00 0.00 0.00 42 1015.7
20260505164508 25 275 0.0 8.0 0.00 0.00 0.00 43 1015.6
20260505163009 25 308 1.6 8.0 0.00 0.00 0.00 41 1015.6
20260505161505 24 231 1.6 9.7 0.00 0.00 0.00 45 1015.8
20260505153110 23 135 1.6 6.4 0.00 0.00 0.00 48 1016.0
20260505151554 23 117 1.6 9.7 0.00 0.00 0.00 49 1016.0
20260505124533 14 139 0.0 0.0 0.00 0.00 0.00 75 1015.5
20260505123019 13 138 0.0 0.0 0.00 0.00 0.00 77 1015.3
20260505121519 12 138 0.0 0.0 0.00 0.00 0.00 81 1015.4
20260505120018 12 139 0.0 0.0 0.00 0.00 0.00 84 1015.5
20260505114516 11 139 0.0 0.0 0.00 0.00 0.00 84 1015.2
20260505113015 11 139 0.0 0.0 0.00 0.00 0.00 84 1014.9
20260505111514 11 138 0.0 0.0 0.00 0.00 0.00 83 1014.9
20260505101507 12 138 0.0 1.6 0.00 0.00 0.00 79 1014.4
20260505100007 11 138 0.0 1.6 0.00 0.00 0.00 81 1014.8
20260505094506 11 139 0.0 0.0 0.00 0.00 0.00 79 1014.6
20260505093004 11 138 0.0 0.0 0.00 0.00 0.00 80 1014.5
20260505091502 12 138 0.0 1.6 0.00 0.00 0.00 78 1014.7
20260505090001 12 138 0.0 0.0 0.00 0.00 0.00 78 1015.0
20260505084559 12 138 0.0 1.6 0.00 0.00 0.00 78 1014.9
20260505083103 12 138 0.0 0.0 0.00 0.00 0.00 77 1014.8
20260505081557 12 139 0.0 1.6 0.00 0.00 0.00 77 1014.9
20260505080103 12 138 0.0 0.0 0.00 0.00 0.00 76 1014.9
20260505074553 12 139 0.0 1.6 0.00 0.00 0.00 76 1014.7
20260505073050 13 138 0.0 1.6 0.00 0.00 0.00 74 1014.8
20260505071549 13 138 0.0 0.0 0.00 0.00 0.00 74 1014.8
20260505070050 13 138 0.0 1.6 0.00 0.00 0.00 74 1014.8
20260505064551 13 138 0.0 1.6 0.00 0.00 0.00 73 1014.7
20260505063045 13 139 0.0 0.0 0.00 0.00 0.00 72 1014.9
20260505061540 13 138 0.0 0.0 0.00 0.00 0.00 71 1015.1
20260505060040 14 139 0.0 1.6 0.00 0.00 0.00 72 1015.0
20260505054536 14 139 0.0 0.0 0.00 0.00 0.00 69 1015.0
20260505053057 14 139 0.0 1.6 0.00 0.00 0.00 70 1015.1
20260505051531 15 139 0.0 0.0 0.00 0.00 0.00 69 1015.0